{"data":{"norad_id":43159,"intl_designator":"2018-008E","name":"JILIN-1 07","alt_names":[],"object_type":"PAYLOAD","status":"ACTIVE","operator":null,"country":"PRC","launch_date":"2018-01-19","launch_site_code":"JSC","launch_vehicle":null,"mission":null,"orbit_class":"UNKNOWN","rcs_meters":null,"size_class":null,"mass_kg":null,"dimensions":null,"purposes":[],"wikipedia_slug":null,"has_3d_model":false,"image_url":null,"decayed_at":null,"tle_current":{"epoch":"2026-05-25T04:54:19.741824Z","epoch_age_seconds":60915,"freshness":"FRESH","line1":"1 43159U 18008E   26145.20439516  .00008515  00000+0  25848-3 0  9995","line2":"2 43159  97.1786 165.7520 0009849 132.3019 227.9061 15.34281020461472","mean_motion":15.3428102,"eccentricity":0.0009849,"inclination_deg":97.1786,"raan_deg":165.752,"arg_perigee_deg":132.3019,"mean_anomaly_deg":227.9061,"bstar":0.00025848,"rev_number":46147,"period_min":93.855035761311,"perigee_km":456.31900482486,"apogee_km":469.79478856256,"semimajor_km":6841.1938966937,"source":"CELESTRAK","updated_at":"2026-05-25T13:37:55.784970Z"}}}